Theta_e
317 316 316 318 318 321 324 326 328 326 323 322 321 320 322 323 322 322 320 321 324 325 326 326 326 326 325 324 325 329 332 333 336 338 340 340 337 339 339 337 335 331 332 333 328 328 333 332 330 328 321 317 316 313 311 311 310 311 320 326 324 322 324 325 326 328 327 326 323 319 317 315 314 318 322 323 321 319 320 320 317 313 313 315 317 318 315 312 311 311 310 311 311 311 311 311 311
316 316 316 318 319 322 324 325 326 324 321 319 320 321 321 322 322 321 321 322 324 323 326 326 325 325 323 324 323 328 334 335 337 339 340 338 339 340 338 336 333 331 333 329 325 330 333 331 329 326 319 317 316 314 311 311 310 311 320 326 324 323 325 328 328 329 329 327 323 320 318 318 320 324 324 326 326 324 325 325 324 321 313 314 321 322 320 317 314 313 311 311 311 310 311 311 311
316 315 317 321 321 322 324 324 324 322 320 318 319 321 321 322 323 323 324 323 324 325 326 326 325 324 324 325 322 328 335 336 337 338 339 338 339 339 338 336 331 332 332 326 327 333 332 329 327 323 319 317 316 314 312 311 311 312 318 323 325 327 328 329 329 330 330 325 321 318 319 322 323 325 325 326 326 324 323 324 326 324 314 313 321 321 320 321 319 316 313 311 310 310 311 311 311
315 314 320 325 325 323 325 326 325 323 320 318 318 321 322 323 325 325 325 324 324 325 326 325 325 325 324 325 323 330 336 335 337 338 338 338 337 338 339 336 333 332 329 327 332 334 331 328 324 321 318 316 315 314 312 312 311 313 317 318 321 326 328 329 330 331 331 326 317 315 322 322 321 325 326 324 324 322 322 324 324 321 314 313 319 319 317 316 316 313 312 313 311 310 311 311 311
314 315 321 326 327 326 326 326 326 324 320 319 318 321 323 324 324 324 325 326 324 325 325 324 327 325 323 326 327 332 336 335 336 337 339 338 335 337 338 337 335 332 330 333 334 334 331 326 322 319 317 316 315 314 313 312 312 312 314 315 319 326 328 329 330 330 330 327 317 313 319 318 316 323 325 324 323 322 324 325 321 318 315 314 317 318 316 313 311 311 312 314 314 312 311 312 312
315 317 321 324 325 325 325 323 324 323 321 321 320 320 323 323 324 323 324 325 324 325 325 325 326 324 326 327 327 332 335 334 336 337 339 338 334 336 338 337 336 333 335 338 336 333 330 324 321 319 317 317 315 314 313 312 312 312 312 313 317 324 326 327 329 329 329 326 316 311 314 313 315 321 323 325 324 323 324 321 316 317 318 321 323 323 322 318 313 313 315 315 315 313 312 313 314
320 324 322 323 323 324 326 324 323 323 321 321 321 320 322 322 323 323 323 323 323 324 324 326 324 324 328 326 327 331 334 334 336 339 338 336 334 337 337 337 337 335 337 338 337 334 328 323 320 319 318 318 316 314 312 312 312 312 312 312 314 319 324 327 328 328 326 320 313 310 311 311 315 320 322 324 324 324 324 318 315 317 321 324 325 324 324 321 316 314 316 314 313 313 312 313 315
323 325 323 324 325 324 326 326 325 323 320 320 320 320 322 322 323 322 322 322 321 322 323 325 323 323 324 326 332 331 333 336 336 336 335 334 336 337 336 337 336 335 337 338 337 333 327 324 320 320 319 319 318 315 313 312 312 312 312 313 313 315 320 323 324 323 317 311 309 309 310 312 314 317 320 321 320 321 321 319 319 321 321 320 319 319 320 321 318 314 314 312 310 312 313 314 315
322 324 323 325 327 325 324 326 325 322 320 320 319 320 322 322 322 321 321 321 320 322 323 323 323 322 321 330 334 331 330 334 334 332 333 334 336 336 336 337 335 336 336 337 338 332 328 326 322 321 320 320 320 318 315 313 312 313 313 313 314 313 314 315 316 314 309 307 307 308 309 311 312 313 318 319 318 320 320 321 321 320 317 314 314 315 316 317 316 313 313 312 311 312 314 316 316
322 323 323 324 326 324 322 324 324 322 321 320 319 319 321 322 321 321 321 321 320 322 323 322 322 320 321 331 335 334 329 327 330 331 331 332 335 335 336 336 335 336 334 336 338 331 329 327 323 321 321 320 320 320 318 315 314 314 315 315 315 314 313 312 311 309 307 307 306 307 307 309 310 312 317 320 322 323 322 322 321 317 314 315 315 314 314 313 313 312 312 312 312 313 315 316 318
324 321 322 324 324 322 322 323 323 322 320 320 320 319 321 322 321 322 321 320 320 322 323 321 321 319 322 332 336 336 328 324 328 328 329 331 333 335 336 336 335 336 335 336 337 332 329 328 325 322 321 321 321 321 320 318 317 316 316 316 316 315 314 313 312 310 308 307 307 307 307 308 311 314 317 320 322 322 321 321 320 317 317 317 316 316 315 314 312 312 312 312 312 314 316 317 318
325 323 323 325 324 323 323 323 322 322 321 320 319 319 320 321 321 322 321 320 320 321 322 320 321 319 320 331 336 334 326 324 327 327 328 329 333 335 335 336 335 335 335 335 335 332 329 328 326 323 322 322 321 321 321 320 319 318 318 317 317 317 316 315 313 312 311 309 309 308 308 310 314 318 320 320 320 320 320 321 320 320 320 319 319 319 317 316 314 312 312 312 312 313 315 317 319
324 324 323 324 324 326 325 324 323 322 322 320 319 319 320 321 321 322 320 319 319 320 320 319 320 319 322 332 335 333 329 327 327 326 327 328 333 335 335 336 334 335 335 334 334 331 331 328 326 325 323 322 321 321 321 321 321 320 319 319 319 318 317 316 315 314 314 312 312 311 311 313 317 320 320 321 320 321 321 321 322 322 322 322 322 321 321 320 318 315 313 312 312 312 314 316 317
322 323 324 324 326 326 326 324 323 322 321 320 319 319 320 320 320 321 320 319 319 319 320 319 319 319 324 331 333 335 333 329 327 326 327 329 334 336 336 336 334 336 335 334 334 331 331 330 327 327 324 323 322 321 321 321 322 322 321 321 320 320 319 318 317 316 315 315 315 314 314 316 318 320 320 321 321 322 322 322 323 323 323 323 323 323 322 322 321 319 316 314 313 312 312 313 314
321 322 325 326 326 325 325 325 323 322 321 320 319 319 320 320 320 320 319 319 319 320 320 318 319 319 323 328 330 335 334 328 327 327 328 330 333 335 336 336 335 336 335 334 335 332 331 331 329 328 325 324 322 321 322 321 322 322 322 323 322 321 321 320 319 318 317 317 316 316 317 318 318 320 321 321 322 322 322 323 323 323 323 323 323 323 323 323 323 322 320 318 315 313 312 312 312
320 321 327 326 325 324 324 324 324 323 320 319 319 319 319 319 320 319 319 319 318 319 319 318 318 322 327 331 331 333 331 325 327 328 328 329 331 335 336 335 334 336 335 333 334 333 333 332 330 329 326 325 324 323 323 322 321 322 322 323 323 323 322 321 321 320 319 318 317 318 318 318 319 320 321 321 322 322 322 322 323 323 323 323 323 323 323 323 323 323 322 321 319 316 314 313 312
319 322 327 325 324 324 323 324 323 322 320 319 319 319 319 318 319 318 318 318 318 317 319 318 318 321 325 332 334 331 327 324 327 329 329 329 330 334 335 334 334 336 335 332 334 334 335 335 332 331 328 327 328 327 326 325 322 322 321 322 323 323 323 323 323 322 321 320 319 319 318 318 319 319 320 321 321 321 322 322 322 322 322 322 322 322 322 322 322 322 322 323 322 321 318 315 313
319 324 326 323 324 323 324 323 321 320 319 319 318 319 319 318 318 317 318 318 319 317 318 319 319 320 319 328 334 327 324 323 326 328 328 328 329 331 333 334 334 334 333 332 334 334 335 336 334 332 330 328 331 332 331 330 327 324 322 322 322 322 323 323 323 323 323 322 321 320 319 319 319 319 319 320 320 320 321 321 321 322 322 322 321 321 321 321 321 321 321 322 322 323 321 319 316
320 324 324 323 324 323 322 321 319 319 319 318 318 319 319 318 317 317 318 317 318 317 318 318 318 321 318 322 327 323 323 321 323 328 327 327 328 330 332 334 334 333 332 331 333 333 334 335 335 334 332 330 331 333 334 334 332 328 326 324 323 322 322 322 323 324 324 323 323 322 322 322 321 320 320 319 319 320 320 320 320 321 321 321 321 321 321 321 321 321 321 321 322 322 322 322 320
318 321 323 323 323 321 320 319 319 319 318 319 318 319 319 318 318 317 317 317 317 316 317 318 319 320 317 318 319 318 320 318 321 327 327 326 328 329 331 332 333 333 331 329 331 333 333 334 335 334 333 331 331 333 333 334 334 332 329 327 327 326 323 322 322 323 324 324 324 323 324 324 323 323 322 321 321 320 320 320 320 320 320 320 320 320 320 320 320 321 321 321 321 321 322 323 322
318 320 323 322 321 320 319 318 318 319 318 319 318 319 319 318 318 317 317 317 317 317 317 317 318 319 316 316 316 316 317 316 320 328 329 327 328 330 330 332 332 333 332 330 330 331 332 333 333 334 334 333 331 332 332 332 333 333 331 328 329 329 327 325 322 322 323 324 324 323 325 324 323 324 323 323 323 323 322 321 321 321 320 320 320 320 320 320 320 320 321 321 321 322 322 322 322
318 320 320 319 320 319 318 317 318 319 318 319 318 318 319 317 318 317 316 317 317 316 318 318 317 318 316 315 315 315 316 315 318 326 329 327 327 330 332 334 332 332 333 331 328 329 331 331 331 333 334 333 332 331 331 331 331 332 333 331 330 330 329 328 326 323 323 324 323 324 326 324 323 325 324 324 325 325 325 324 323 323 323 322 322 321 321 321 321 321 321 322 322 322 322 321 322
319 319 319 318 318 317 317 316 317 318 318 319 318 318 318 317 317 317 317 317 317 317 318 318 318 319 317 316 314 315 316 315 315 319 324 325 325 329 333 335 333 331 331 331 328 327 330 331 331 330 331 331 331 331 331 332 331 331 333 333 331 331 330 330 329 327 325 325 324 324 325 325 323 325 325 324 324 325 326 326 326 326 326 325 324 324 324 323 322 322 322 322 323 323 322 322 322
318 318 318 317 317 316 316 316 316 317 318 318 318 318 317 317 317 317 317 317 317 316 316 317 319 321 319 316 315 314 315 315 315 314 318 323 324 327 333 336 335 333 333 332 330 328 326 329 331 331 329 328 329 330 330 330 330 330 332 333 332 332 331 331 330 329 327 326 326 325 325 326 325 325 325 325 324 325 325 326 326 326 326 326 326 325 326 325 324 324 323 323 323 323 323 323 322
317 317 317 317 316 315 314 315 315 316 317 317 317 317 317 317 317 316 317 316 317 316 316 315 318 321 321 317 315 315 315 314 315 314 317 323 327 329 332 336 337 335 335 332 330 329 326 326 329 329 328 326 327 328 329 329 328 328 330 330 332 332 331 331 331 330 328 327 327 327 327 327 326 326 326 326 325 325 325 325 325 326 326 327 327 327 327 326 326 326 325 324 324 324 324 324 324
317 317 317 316 315 314 314 314 315 315 316 316 316 317 316 316 316 317 317 316 316 316 316 314 315 319 320 318 316 315 315 315 315 315 315 319 326 329 330 333 336 336 335 333 331 330 327 324 325 326 326 326 326 326 327 328 328 328 328 329 331 331 330 331 330 330 329 328 327 327 328 328 328 328 328 328 327 327 326 327 326 327 327 328 328 328 328 327 327 327 326 326 325 325 324 324 325
317 316 316 315 315 314 315 315 314 314 315 315 317 317 315 315 316 317 317 316 316 316 316 315 314 315 317 317 317 316 315 314 314 315 315 316 322 326 326 328 333 337 336 335 334 332 328 323 321 323 324 325 325 325 325 326 327 326 327 328 329 329 329 329 329 329 329 328 327 327 327 328 328 328 329 329 329 328 328 328 328 328 328 328 329 328 328 328 328 328 327 327 327 327 326 326 326
316 316 315 315 315 315 315 315 314 315 315 315 316 316 315 315 316 317 317 316 316 316 315 315 315 314 315 316 316 317 316 315 314 314 315 316 318 321 322 322 326 333 336 336 335 333 330 325 320 320 321 323 324 324 323 324 325 325 325 326 327 327 327 328 328 327 327 327 327 326 326 327 328 329 329 329 329 329 329 329 329 329 329 328 328 328 329 328 328 328 327 327 327 327 326 326 326
316 316 316 315 315 315 314 315 315 315 315 315 315 316 316 316 316 316 316 317 316 316 316 315 315 315 315 316 317 316 316 317 316 315 315 315 315 316 317 317 318 323 328 332 333 331 329 326 320 317 318 319 320 322 322 322 323 324 324 324 324 325 325 325 325 325 325 325 325 324 322 324 326 328 329 329 329 329 329 329 329 330 329 329 329 329 329 329 328 327 326 325 325 326 326 325 325
316 315 316 316 316 316 315 315 315 315 315 314 315 316 318 317 316 316 316 317 316 315 316 316 316 315 315 317 318 317 315 317 317 315 315 314 315 315 315 316 316 316 318 323 326 325 325 325 321 316 315 316 317 318 320 321 322 323 324 323 324 324 323 324 324 324 324 323 323 322 321 321 322 325 328 329 329 329 329 329 329 329 329 329 329 329 329 329 328 327 327 325 325 325 325 325 325
315 315 317 318 318 316 315 315 314 315 315 314 315 316 318 318 316 316 316 316 315 315 316 316 316 316 316 317 319 318 315 315 315 314 315 314 314 315 315 315 315 316 316 317 318 319 319 319 318 315 314 314 314 315 317 318 320 322 322 322 322 322 322 322 323 324 324 323 321 321 321 320 320 321 325 328 329 329 329 329 329 329 329 328 328 329 329 329 328 328 328 327 326 325 325 325 325
315 316 317 318 318 317 316 315 314 315 315 313 315 316 317 316 315 315 315 315 315 315 315 316 316 316 317 318 318 317 315 314 314 314 314 314 314 314 314 314 315 315 315 315 315 315 316 316 315 314 314 313 313 314 315 316 318 320 321 320 320 320 320 320 320 322 323 322 320 318 318 320 320 320 322 326 328 328 328 329 329 328 328 326 326 327 327 326 326 326 327 328 327 325 323 324 324
315 316 317 318 317 316 316 315 314 315 315 314 314 316 317 315 314 314 314 315 315 315 315 315 315 316 316 317 317 316 315 314 314 314 314 314 314 314 314 314 314 314 315 314 314 314 315 315 315 314 314 314 314 314 315 315 316 319 320 319 319 318 318 317 317 318 319 320 319 317 317 318 319 319 320 322 325 327 328 328 328 328 327 327 326 326 325 324 324 325 326 327 326 324 322 323 324
315 316 317 318 316 316 316 315 315 314 315 315 314 315 316 315 314 314 314 314 314 314 315 315 315 316 316 316 316 315 314 314 314 314 314 315 314 314 314 314 314 314 314 314 314 314 314 314 314 314 314 314 314 314 315 315 315 317 318 318 319 318 317 316 314 315 316 316 316 316 317 317 318 319 318 319 322 324 326 327 327 327 327 328 328 327 325 324 324 324 325 325 325 324 324 324 325
316 317 316 316 317 316 316 316 315 315 315 316 316 315 315 315 315 314 314 313 314 314 314 315 315 315 315 315 315 315 315 314 314 314 314 315 315 314 314 314 314 314 314 314 314 314 314 314 314 314 314 313 314 314 314 315 315 315 316 318 319 318 316 315 315 315 315 315 315 316 317 318 318 318 317 318 319 320 322 324 323 323 324 325 326 326 325 325 325 324 324 325 325 326 325 325 326
317 317 315 316 318 316 316 316 314 315 315 316 316 315 315 315 315 315 315 314 314 314 314 315 315 316 316 316 315 315 315 315 314 314 314 314 315 315 315 314 314 314 314 315 314 314 314 315 314 314 314 314 314 314 314 314 314 315 315 316 317 316 315 315 315 315 315 315 315 316 318 319 318 318 318 320 319 317 322 324 324 326 325 321 320 322 323 325 326 324 324 325 326 326 325 325 325
316 317 316 317 319 316 315 316 314 314 315 315 315 316 316 316 316 316 315 314 314 314 315 315 315 316 316 316 316 316 315 315 315 315 315 314 314 314 315 315 314 314 314 314 314 315 315 314 314 315 314 314 314 314 314 314 314 314 315 315 315 315 316 316 315 316 316 316 317 318 319 320 320 321 321 321 319 320 324 325 326 329 326 320 320 321 321 323 324 324 325 326 326 325 325 325 325
316 317 317 316 318 317 315 315 313 314 316 316 315 315 315 315 316 316 315 315 314 314 315 315 315 315 316 316 316 316 316 315 315 316 316 315 315 314 314 314 314 315 314 315 315 315 315 314 314 315 315 315 315 315 314 314 314 314 314 315 315 315 316 316 316 316 316 317 317 318 320 320 322 323 323 322 322 324 325 325 326 326 323 324 326 325 323 323 323 324 325 325 327 328 328 327 326
317 318 317 317 318 317 314 314 314 313 315 316 316 316 316 315 316 316 315 315 315 315 315 315 316 315 315 316 316 316 316 316 316 316 316 315 315 314 314 314 314 315 315 315 315 315 314 315 314 314 315 315 315 315 315 315 315 315 315 315 315 316 316 316 316 316 317 317 316 317 318 320 321 322 321 321 323 326 326 327 327 324 323 327 330 329 327 326 325 326 325 324 325 328 328 328 327
317 317 316 317 319 318 316 315 314 313 314 315 317 318 317 316 317 317 315 316 316 316 316 316 316 316 315 315 315 316 317 317 318 317 317 316 315 315 314 315 314 314 314 314 315 315 315 314 314 314 314 314 314 315 315 314 315 315 315 316 316 316 316 316 316 316 316 316 316 316 317 318 319 320 322 322 323 324 326 327 326 324 324 326 329 330 327 326 328 329 326 324 323 324 324 325 327
318 319 318 318 320 319 318 315 313 313 314 315 315 316 317 316 315 316 315 316 316 315 317 316 317 317 316 315 316 317 317 317 318 318 318 316 316 316 315 315 315 315 315 315 314 315 315 314 314 314 314 314 314 315 314 314 315 315 315 316 316 316 316 315 315 315 316 315 316 316 316 316 316 319 322 323 322 322 324 325 326 326 325 325 325 325 323 325 327 326 325 326 325 325 323 322 324
316 320 320 318 318 319 318 317 315 314 316 317 314 316 321 319 316 316 315 316 316 315 316 317 317 317 316 317 316 316 317 318 318 318 317 317 316 316 315 315 316 315 315 315 315 314 314 314 314 315 315 314 314 315 315 314 315 314 315 315 315 315 315 315 314 315 315 315 315 315 315 315 316 317 318 319 319 321 324 325 326 327 326 325 324 322 323 324 325 325 326 328 328 328 326 322 322
313 320 323 319 320 322 321 319 317 316 317 318 316 317 320 320 316 317 317 318 317 317 316 316 316 317 317 316 316 316 317 317 317 317 316 316 315 315 316 315 315 316 315 315 315 315 315 314 315 315 315 315 315 315 314 315 315 314 315 314 314 314 314 314 314 315 315 315 315 314 315 315 316 316 316 317 317 319 322 324 326 327 326 324 323 323 325 326 327 327 327 327 327 326 324 323 323
316 323 326 321 320 324 324 322 319 318 318 317 316 317 318 319 318 318 318 317 317 317 318 316 315 315 316 316 316 315 315 315 315 316 315 315 315 314 314 315 315 315 315 315 315 315 315 315 315 315 315 314 314 314 314 314 314 314 314 314 314 314 314 314 314 314 315 315 315 315 315 315 315 316 316 316 317 317 319 321 323 323 322 322 323 324 325 325 326 327 326 325 323 322 322 324 325
320 324 325 322 321 324 324 322 319 319 320 319 318 317 318 320 320 317 318 316 316 317 318 317 314 314 315 315 316 315 314 315 314 314 314 313 314 313 313 313 314 314 314 315 315 315 315 314 315 314 314 314 313 313 313 313 313 313 314 314 314 314 314 314 314 314 315 315 315 315 315 316 316 316 316 316 316 317 317 318 319 319 320 320 322 323 324 323 324 326 326 324 323 322 322 324 324
319 321 323 323 323 323 322 321 319 319 320 321 321 318 317 320 320 316 317 316 317 317 316 316 313 314 316 315 316 315 314 314 313 313 313 313 313 313 313 313 313 314 314 314 314 314 314 314 314 314 313 313 313 312 312 312 313 313 313 314 314 315 314 315 314 315 315 315 315 315 315 315 315 315 315 315 316 316 316 317 318 319 319 320 321 322 323 324 324 325 325 324 322 322 321 322 323
317 320 322 321 321 321 319 320 319 318 321 321 321 318 316 320 321 317 318 317 317 317 317 319 316 316 317 316 315 315 314 313 313 313 312 312 313 312 313 312 312 313 312 313 313 313 313 313 313 313 313 313 312 312 312 312 313 313 314 314 314 315 315 315 315 315 315 315 315 315 315 315 315 315 315 314 315 315 315 315 316 317 318 318 319 321 322 323 324 323 322 321 321 322 322 321 320
318 322 322 320 319 318 317 318 317 319 321 318 318 319 318 319 319 316 317 317 316 317 318 321 318 315 315 315 314 314 313 314 313 313 312 312 313 312 312 312 312 312 312 312 313 312 313 312 312 313 312 312 312 312 312 312 313 313 314 315 315 315 315 315 315 315 315 315 315 315 315 314 314 314 314 314 314 314 314 314 314 315 314 315 316 317 318 319 320 320 319 318 318 319 320 319 317
320 321 319 319 319 317 317 318 318 319 319 314 314 317 318 318 316 314 316 315 315 316 316 318 317 315 315 314 314 313 313 314 313 312 312 311 311 311 312 311 311 312 312 313 313 313 313 313 312 312 312 312 312 312 312 313 314 314 315 315 315 315 315 315 315 315 315 315 315 315 315 315 314 314 314 314 314 313 313 313 313 313 313 313 313 314 315 315 316 316 317 317 317 317 317 317 317
318 319 319 320 319 316 317 318 319 319 317 313 312 315 318 317 315 315 316 314 314 314 315 317 316 315 315 314 313 314 314 314 314 313 313 312 311 311 311 311 311 313 313 313 313 313 313 312 312 312 312 312 313 313 314 314 315 315 315 315 315 315 315 315 315 315 315 315 315 315 315 315 314 314 314 314 314 313 313 313 313 313 313 313 313 313 313 313 313 314 314 314 315 315 315 315 316
316 318 319 320 318 318 319 318 321 322 318 312 312 316 320 318 317 316 314 312 313 314 314 315 314 314 314 313 313 313 314 315 315 315 314 313 312 312 312 313 313 314 314 313 313 313 312 312 313 313 313 314 314 315 315 315 315 315 315 315 315 315 315 315 315 315 315 315 314 314 314 314 314 314 314 313 313 313 313 312 312 312 313 312 313 313 313 313 313 313 313 313 313 313 313 313 313
316 319 320 319 319 322 321 317 318 321 319 315 314 319 321 318 317 316 313 312 313 312 313 312 312 312 312 312 313 313 314 315 315 316 315 315 314 314 314 314 314 314 314 314 313 313 313 313 314 314 315 315 315 315 315 315 315 315 315 315 315 315 315 315 315 314 315 315 314 314 314 314 314 314 313 313 313 312 312 312 312 312 312 312 312 312 312 312 312 312 312 312 312 312 312 312 312
318 318 319 319 320 323 321 315 314 314 316 318 317 318 318 314 315 317 315 314 313 311 312 311 311 311 311 312 313 314 314 315 315 316 315 315 315 314 315 314 314 314 314 314 314 314 314 315 315 315 315 315 315 315 315 315 315 315 315 315 315 315 314 315 314 314 314 314 314 314 314 314 314 314 314 313 313 313 313 312 312 312 311 311 311 311 312 311 311 311 311 311 311 311 311 311 311
319 319 318 316 317 321 318 315 315 314 314 316 317 317 316 315 317 318 315 314 314 313 312 311 312 312 311 313 314 314 314 314 315 315 315 315 315 315 315 315 315 315 314 315 315 315 315 315 315 315 315 315 315 315 315 315 315 315 315 315 314 314 314 314 314 314 314 314 314 314 314 314 314 314 313 313 313 313 313 313 313 312 312 312 311 311 311 311 311 311 311 311 311 311 311 311 311
315 316 316 316 318 319 316 313 316 317 314 315 318 317 316 316 316 317 316 316 315 314 312 312 313 312 311 314 315 314 314 314 315 315 315 315 315 315 315 315 315 315 315 315 315 315 315 315 315 315 315 315 315 315 315 314 314 314 314 315 314 314 314 314 314 314 314 314 314 314 314 314 314 313 313 313 313 313 313 312 312 312 312 311 311 311 311 311 311 311 311 311 311 310 310 310 310
313 313 314 316 317 317 317 316 315 317 316 316 317 317 319 320 318 316 318 318 315 314 313 312 312 312 312 314 315 314 313 314 314 315 315 315 315 315 315 315 315 315 314 315 315 315 315 315 315 315 315 315 314 314 315 314 314 314 314 314 314 314 314 314 314 314 314 314 314 314 314 313 313 313 313 312 312 312 311 311 311 311 311 311 311 310 310 309 309 309 308 308 308 307 307 306 306
312 314 314 314 314 315 318 318 315 315 315 316 315 315 320 323 317 315 315 316 316 314 314 313 311 312 312 313 315 315 313 314 314 314 314 314 314 314 314 314 314 314 314 315 315 315 315 315 315 314 314 314 314 314 314 314 314 314 314 314 314 314 314 314 314 314 314 314 314 313 313 313 312 312 312 312 311 311 311 311 310 310 309 308 307 307 306 305 305 304 304 303 303 302 302 302 302
314 314 314 313 314 315 316 317 316 314 315 318 316 316 324 324 317 317 315 315 317 314 313 313 311 312 312 313 315 314 313 314 314 314 314 314 314 314 314 314 314 314 315 314 314 314 314 315 314 314 314 314 314 314 314 314 314 314 314 314 314 314 314 314 314 314 314 313 313 313 312 312 312 311 311 311 310 309 308 307 306 305 304 304 303 303 303 302 302 302 302 302 301 301 301 301 301
Wind_Speed
4 3 2 2 2 2 5 5 5 3 3 3 2 3 3 5 5 5 6 5 4 7 9 10 10 8 4 3 7 14 14 9 3 1 6 15 20 17 16 18 15 13 12 12 10 10 10 10 9 7 8 10 12 12 12 12 11 13 15 15 13 15 17 16 14 12 11 10 9 8 8 9 11 11 12 12 13 13 13 14 13 13 14 13 14 14 13 14 13 13 13 13 14 14 14 14 14
5 4 3 1 1 2 6 5 3 2 4 2 4 5 4 3 4 6 5 4 8 8 9 10 7 5 2 2 5 9 15 13 11 15 19 22 22 18 17 16 16 15 11 12 11 11 11 10 9 7 9 10 12 12 12 12 12 13 15 15 14 17 17 15 13 11 9 10 9 8 10 12 12 13 13 14 13 13 14 14 14 13 14 14 13 13 13 13 13 13 13 13 14 14 14 14 14
5 5 4 0 4 5 7 3 2 4 3 2 4 4 5 4 4 7 8 11 15 12 10 9 6 2 3 1 4 6 8 12 17 23 24 22 22 20 17 17 17 14 12 13 12 12 11 10 8 8 9 10 12 11 12 13 12 13 15 15 14 16 17 14 13 10 8 9 9 9 11 12 13 13 13 14 12 12 13 14 14 12 13 13 13 13 13 13 13 13 13 13 14 14 14 14 15
6 6 4 1 6 5 5 2 3 4 2 2 3 3 5 7 8 10 12 15 15 12 10 7 4 2 5 5 6 8 10 11 14 19 21 17 19 22 18 18 16 14 14 13 13 13 11 10 8 9 10 11 12 12 12 13 14 14 15 16 17 17 17 14 12 9 6 8 9 10 12 12 12 13 13 12 12 12 12 13 12 12 12 13 13 13 13 13 13 13 13 13 13 14 14 15 15
6 6 5 2 5 4 2 2 2 2 3 1 3 4 5 9 10 9 12 14 12 9 7 6 3 3 3 7 6 6 9 11 12 14 17 13 17 23 19 17 15 15 15 11 12 13 11 9 9 10 11 12 12 12 12 13 15 15 16 17 19 18 16 14 12 8 5 6 8 10 12 11 11 12 12 12 11 12 13 13 13 13 13 13 13 13 13 13 13 13 13 12 13 14 14 14 15
4 4 3 3 6 5 3 2 3 0 3 3 4 3 6 10 11 12 13 12 9 7 5 4 3 4 6 6 8 7 7 10 12 12 14 15 19 23 19 16 15 15 13 10 11 12 11 9 10 11 12 13 13 12 12 13 14 15 16 16 17 17 17 14 11 8 4 5 7 10 11 11 12 12 12 12 12 12 12 13 12 13 14 14 14 13 13 13 13 13 12 12 13 13 14 14 14
4 3 4 5 6 4 3 4 4 2 3 4 5 3 7 12 14 14 11 8 6 6 4 3 2 3 5 6 8 9 9 11 14 12 12 18 22 21 20 17 15 15 13 12 11 12 11 10 10 12 13 13 13 13 13 14 14 15 16 15 15 17 17 14 11 8 5 6 8 10 11 11 12 12 12 12 12 13 13 12 11 12 13 14 13 12 12 12 12 12 12 12 12 13 13 13 14
5 4 5 3 3 2 3 5 2 3 2 4 5 4 9 13 14 12 7 7 5 6 5 4 3 2 3 8 7 7 11 11 15 15 13 21 24 21 21 16 16 15 12 13 12 12 12 10 11 12 13 13 13 14 14 14 14 15 15 15 15 16 16 14 11 8 7 9 10 10 10 10 11 12 12 12 13 13 12 12 11 12 13 14 13 12 12 12 12 11 11 11 11 12 13 13 13
5 6 5 2 2 2 3 5 0 5 4 5 4 5 10 13 13 10 6 8 7 9 9 6 4 2 4 11 10 7 11 11 16 16 15 24 25 21 20 16 17 16 13 13 12 14 13 11 12 11 12 13 13 14 14 14 14 14 14 15 15 16 15 13 11 9 10 11 11 11 10 11 12 12 12 12 12 12 12 12 13 14 15 15 15 14 14 13 12 11 10 11 12 12 13 13 13
7 8 5 2 3 3 3 5 1 4 5 7 6 5 8 10 11 11 8 8 9 9 9 7 3 2 3 12 11 6 8 11 15 15 19 25 24 21 18 15 17 16 14 12 13 15 13 12 12 11 12 12 13 13 13 14 14 14 14 14 15 15 15 14 13 12 12 12 13 12 11 12 13 13 13 13 13 13 13 14 15 16 17 17 17 17 16 15 14 12 11 11 12 12 13 13 12
6 10 6 2 4 3 5 3 3 4 5 6 7 7 8 8 8 10 9 9 10 10 9 7 4 3 3 10 10 5 5 9 13 16 22 25 23 20 16 14 16 16 12 12 13 15 14 13 12 11 11 11 12 12 12 13 13 14 14 14 14 14 14 14 13 13 13 13 13 13 12 12 13 14 14 14 14 14 15 15 16 16 17 17 18 18 17 16 15 14 12 12 11 12 13 12 12
4 6 4 2 5 4 3 2 5 5 6 5 5 7 9 9 5 7 10 8 10 11 9 7 4 5 3 7 8 7 5 8 14 16 23 25 22 20 16 14 15 16 13 13 14 16 15 13 12 11 11 11 11 11 11 12 12 12 13 13 13 13 13 13 13 13 13 13 13 13 13 12 13 14 14 14 14 15 15 15 16 16 17 17 17 17 17 17 16 15 14 13 12 11 12 11 11
5 4 3 2 5 2 1 1 6 5 5 5 6 9 10 10 6 6 10 9 9 8 8 7 4 3 3 9 10 10 8 11 14 17 22 23 23 21 15 14 14 16 15 13 13 16 15 12 13 11 10 10 9 10 10 10 10 11 11 12 12 12 12 12 12 12 13 13 13 13 13 12 13 14 14 14 14 14 15 15 15 15 16 16 17 17 17 17 17 17 16 15 13 12 10 10 10
7 7 3 3 5 2 1 2 5 4 3 5 10 13 11 9 7 8 9 8 6 7 11 9 5 3 5 10 10 13 13 14 15 18 21 21 25 23 15 14 15 16 15 14 13 14 15 13 12 11 11 10 9 9 9 9 9 9 9 10 10 11 11 11 11 11 12 12 12 13 12 12 12 12 13 13 13 13 13 13 13 14 14 15 15 16 16 16 16 17 17 16 14 13 10 9 8
9 9 3 3 5 3 1 2 4 4 3 4 10 16 11 6 6 6 5 5 5 10 14 8 5 1 3 6 10 17 16 15 17 19 21 22 26 25 18 15 17 16 14 15 14 13 15 12 11 11 11 10 9 8 7 7 7 7 8 8 9 9 9 10 10 10 11 11 11 11 11 11 11 11 11 11 11 11 11 11 11 12 12 13 13 13 14 14 15 15 15 15 14 13 11 9 8
9 7 2 2 4 2 1 1 2 3 3 4 11 16 8 5 8 4 5 8 8 10 9 5 6 3 5 10 13 18 15 15 19 19 21 23 26 26 21 18 19 16 14 16 15 13 14 12 12 11 10 10 9 8 6 6 6 7 6 7 7 7 8 8 9 9 9 9 9 9 10 10 10 10 9 9 8 8 9 9 9 9 9 10 10 10 10 11 12 13 14 14 14 13 12 10 8
7 4 1 3 3 2 3 3 3 4 5 6 11 14 8 5 7 4 6 9 8 9 7 4 7 5 7 13 16 15 12 15 20 21 21 21 24 26 21 19 20 16 15 17 16 15 14 12 13 11 10 10 9 9 7 7 7 7 7 6 6 6 7 7 7 7 7 8 8 8 8 8 8 8 7 6 6 6 7 6 6 7 7 7 8 8 8 9 10 10 11 11 12 12 12 10 9
4 1 2 4 4 4 5 4 6 8 6 6 11 14 9 7 7 6 7 6 7 8 8 7 7 7 7 13 15 12 11 15 20 23 22 21 22 23 21 20 20 16 17 18 17 17 16 14 13 12 12 11 10 9 8 8 8 8 7 7 7 6 6 6 6 6 6 7 6 6 6 6 6 6 6 5 4 4 4 4 4 4 5 5 5 6 6 7 7 8 8 9 9 10 10 9 9
6 2 2 5 4 2 5 7 7 10 10 10 13 13 8 9 12 10 6 7 9 7 8 10 9 9 10 13 14 12 12 15 21 23 23 23 22 22 21 20 20 17 17 19 18 18 18 16 15 14 14 13 12 11 10 9 9 9 8 7 7 7 7 6 6 5 5 5 5 5 5 5 4 4 4 3 2 1 1 1 2 2 3 3 4 4 5 6 6 6 6 7 7 7 7 7 8
8 5 2 5 2 4 8 14 12 13 16 13 12 10 6 10 13 10 7 8 10 8 10 14 13 13 13 15 14 12 13 15 21 24 23 23 21 21 21 19 19 17 16 18 18 17 18 18 17 15 15 16 15 13 12 10 10 9 9 8 8 7 8 7 7 6 6 5 5 5 4 4 3 2 2 1 1 0 1 1 2 2 2 3 3 4 4 5 5 6 6 6 6 6 6 6 7
5 6 3 4 3 5 8 14 12 13 16 13 13 10 6 9 10 9 8 6 7 10 14 16 17 17 16 17 15 11 13 16 21 24 23 22 21 20 19 18 19 18 15 16 18 18 18 19 20 18 17 17 17 15 14 12 11 10 9 9 8 8 8 8 9 8 8 7 6 6 4 3 3 2 2 2 2 1 2 2 3 3 3 3 4 4 4 5 5 5 5 5 5 5 6 6 7
3 7 5 7 4 3 7 12 11 10 13 14 13 9 8 9 7 10 10 4 3 6 12 16 17 19 17 17 16 12 13 17 20 23 25 23 22 21 18 18 19 18 17 16 17 18 19 18 20 21 19 19 19 18 16 14 13 12 10 9 9 9 9 8 10 10 10 8 8 8 5 5 6 5 4 4 4 4 3 3 4 5 4 4 5 5 4 5 5 5 5 5 5 5 5 5 6
3 8 6 7 8 4 6 9 11 9 10 12 12 10 12 11 6 11 12 4 5 5 9 12 11 15 17 16 17 14 13 16 19 21 24 24 23 22 20 19 19 17 18 18 17 17 20 19 18 19 20 21 21 20 18 16 16 14 12 11 11 10 10 9 10 11 10 10 9 9 7 7 8 7 6 6 6 7 6 5 6 6 6 5 6 7 6 6 6 6 6 6 6 6 5 5 5
4 6 4 3 7 6 4 7 10 8 8 9 11 11 12 10 6 9 11 6 4 2 5 8 8 12 15 14 14 14 13 14 15 18 21 22 23 23 21 20 18 17 18 18 17 17 19 20 19 18 19 20 21 22 20 19 18 17 15 14 13 12 12 11 11 11 11 10 10 10 9 8 9 9 8 8 8 9 8 8 8 8 8 8 7 9 9 8 8 8 7 7 7 7 7 6 6
7 5 1 4 6 5 4 7 9 7 6 8 10 9 9 9 5 6 10 9 8 6 4 6 8 12 14 13 13 13 13 14 14 17 20 22 23 23 23 20 18 19 21 20 19 18 18 20 21 21 20 18 19 21 21 20 19 18 18 17 15 15 15 14 13 13 13 12 10 10 11 10 9 10 11 10 10 10 10 10 10 9 9 10 9 10 10 10 10 10 9 9 9 9 9 8 8
7 3 3 5 5 4 5 5 7 5 4 7 7 6 5 6 5 4 10 10 11 11 8 8 9 12 13 13 14 13 14 15 16 17 18 21 23 24 24 23 20 19 20 20 19 20 19 19 21 23 21 19 18 18 20 19 18 18 18 18 17 17 17 17 16 16 15 14 13 12 12 12 11 11 12 12 12 12 12 11 11 11 11 11 11 11 11 11 12 12 11 11 10 10 11 10 10
4 6 7 6 4 4 4 4 6 3 4 7 4 4 3 3 4 3 10 13 13 12 11 11 11 11 12 12 14 15 15 15 16 16 18 21 23 24 25 25 23 20 19 19 20 20 20 19 18 21 22 21 20 19 19 19 19 18 17 18 18 18 17 17 18 18 17 16 15 14 14 14 13 12 12 13 14 14 14 13 12 12 12 12 12 12 12 12 12 13 13 13 13 13 13 12 12
3 10 7 4 4 4 3 4 6 3 3 7 1 4 4 2 3 4 11 16 15 15 13 13 14 13 12 12 13 15 16 15 16 18 19 21 22 23 24 25 25 24 22 22 22 21 20 20 18 18 21 23 22 21 20 20 20 19 18 18 18 18 17 17 18 18 18 17 17 17 15 15 14 15 14 15 16 16 15 15 14 13 13 13 13 13 13 13 13 14 15 14 15 15 15 15 15
3 7 3 3 3 2 4 4 6 3 2 7 3 3 2 2 8 11 13 16 16 15 14 14 15 15 15 14 15 16 16 17 18 19 19 19 19 20 21 21 23 24 24 24 23 22 21 21 20 18 18 21 23 23 22 21 21 20 20 19 18 18 18 18 18 18 18 18 18 18 17 16 16 16 16 16 17 18 17 16 16 15 14 14 14 14 15 15 15 15 16 16 16 16 16 16 17
4 5 3 4 2 2 7 6 5 3 2 7 3 1 5 6 17 20 15 15 16 14 14 14 14 14 16 16 17 18 18 19 20 20 19 18 17 18 19 20 21 22 23 24 24 23 23 22 22 20 18 18 20 22 23 23 22 22 21 20 19 19 19 18 18 18 18 18 18 18 18 18 18 17 17 18 18 19 19 18 18 17 16 16 16 17 17 17 17 17 17 17 16 17 17 17 18
4 4 3 3 2 3 7 9 8 4 2 8 4 1 5 4 10 17 17 16 16 14 14 14 12 13 16 18 19 20 20 21 20 19 18 18 18 18 18 19 20 21 21 23 23 23 22 22 21 21 19 17 17 17 19 21 22 21 21 21 20 20 20 19 18 19 19 19 19 19 19 19 19 19 18 19 20 20 21 19 19 20 19 19 19 18 18 18 19 19 19 19 18 18 18 18 19
3 3 3 3 3 2 3 6 10 5 2 7 5 2 6 1 4 12 16 15 14 14 13 13 13 13 15 18 20 21 21 22 21 19 18 18 19 19 19 19 20 20 20 20 21 22 21 20 19 19 18 17 16 15 16 18 19 20 20 19 19 19 19 19 18 19 19 20 20 20 20 20 20 20 20 21 22 22 22 21 20 21 22 23 21 19 19 20 20 20 20 20 19 19 18 18 19
3 4 3 4 5 3 1 2 4 4 4 6 5 2 4 2 5 9 12 13 13 13 12 13 14 14 15 16 18 19 20 22 23 22 20 19 20 21 20 20 20 20 19 19 20 21 21 20 19 18 17 16 16 15 15 16 17 18 19 19 18 18 18 18 17 18 19 20 21 21 21 21 20 20 20 22 23 24 23 22 21 21 22 25 24 23 22 22 22 22 21 20 20 19 19 19 20
3 3 2 4 6 5 3 1 3 5 3 4 6 4 4 3 6 9 10 12 12 12 13 13 14 14 14 15 16 16 18 22 24 23 22 21 21 21 21 21 20 20 20 20 20 20 20 20 20 18 18 17 16 16 15 15 16 16 18 19 19 18 18 17 17 18 18 19 20 21 22 22 21 20 20 20 22 23 22 22 23 23 24 26 27 27 25 23 23 24 23 20 20 20 20 20 21
4 4 3 4 5 5 5 2 4 7 3 3 6 6 9 7 6 9 11 12 13 12 13 12 13 14 14 15 16 16 17 20 22 22 22 22 22 21 22 22 22 21 21 21 20 20 20 21 21 20 19 19 18 18 17 17 17 17 17 18 18 19 19 18 18 18 19 19 20 20 21 22 21 21 21 21 21 22 21 21 22 23 24 26 28 28 24 21 20 21 22 22 22 22 22 21 23
7 8 6 5 5 5 3 2 3 7 3 3 6 7 9 9 7 7 11 13 14 14 12 12 13 13 14 15 17 17 18 19 19 18 19 22 23 22 21 22 22 22 22 22 22 22 21 21 22 22 21 20 20 20 20 20 20 19 18 19 19 20 20 20 20 20 20 20 20 20 20 21 21 21 20 20 21 20 19 22 22 22 24 24 24 25 23 22 20 20 21 22 24 25 23 24 25
5 8 7 6 5 3 2 3 2 4 3 5 7 7 8 9 8 8 13 15 14 14 14 14 15 15 16 16 17 18 19 19 17 16 18 20 23 23 23 23 22 23 23 23 23 23 23 22 23 23 22 22 22 22 22 22 22 21 21 21 21 20 20 20 21 20 20 20 19 19 19 20 20 20 19 19 19 18 18 21 23 25 24 21 20 21 22 22 21 19 19 21 23 24 25 26 27
5 3 6 7 5 2 2 3 3 2 1 5 8 9 11 10 8 10 12 12 13 17 16 17 18 18 18 17 18 19 18 17 17 18 20 21 22 23 23 24 24 24 24 24 25 24 23 23 24 24 23 23 23 23 23 23 23 23 22 22 21 20 20 20 20 19 19 18 18 18 19 20 20 20 20 18 18 19 19 20 21 23 23 21 22 22 21 21 20 20 20 21 24 26 27 27 27
5 2 2 4 3 3 2 3 2 2 1 2 3 5 9 10 8 9 12 11 14 20 21 21 22 21 20 20 20 20 18 17 18 20 21 22 22 22 22 23 24 25 25 25 26 25 25 25 25 25 25 25 24 24 24 24 23 23 22 22 21 21 20 20 20 20 19 18 18 18 18 19 20 20 21 20 19 20 20 21 21 22 21 22 24 24 22 23 24 24 22 24 26 27 29 28 27
2 2 0 2 3 4 1 1 2 1 1 1 3 3 5 7 7 8 15 21 20 20 22 23 23 24 24 23 21 21 21 20 21 21 21 22 22 22 22 22 23 25 26 28 28 28 28 28 27 27 27 26 25 24 24 24 23 23 23 22 22 21 21 21 21 21 20 20 19 19 19 19 19 19 20 19 20 21 21 22 22 21 21 22 25 26 27 28 29 27 24 26 27 25 27 28 28
3 3 2 3 2 4 3 3 4 1 2 1 3 5 5 6 8 8 13 20 20 20 22 21 23 25 24 23 23 23 22 22 22 22 22 23 24 24 23 23 23 24 26 27 29 29 30 30 29 28 27 27 26 25 24 24 24 24 24 24 23 23 23 22 21 21 21 20 18 18 18 19 19 19 19 19 20 20 20 22 21 21 20 20 23 25 27 28 29 27 26 29 30 27 26 27 28
3 5 5 2 2 5 8 5 4 2 2 2 3 1 6 5 9 10 9 10 13 17 18 19 23 24 24 24 24 24 23 23 23 22 22 23 24 24 23 24 24 25 25 25 26 27 28 29 29 28 27 26 25 25 25 25 26 26 26 25 24 24 23 22 21 21 21 19 18 18 17 17 18 19 20 21 21 20 19 20 21 22 22 20 21 22 23 25 26 27 27 28 29 28 25 26 29
3 4 4 2 5 7 8 6 4 2 2 2 2 4 5 4 4 8 7 7 9 10 10 15 21 23 25 27 28 27 26 26 26 25 25 24 25 26 26 25 25 25 25 25 26 26 27 27 27 27 26 26 25 25 26 26 27 27 26 25 23 23 22 22 21 21 19 18 18 18 18 17 17 18 19 21 22 21 21 21 21 23 24 23 22 22 22 23 24 26 28 27 28 29 27 27 28
3 3 3 3 7 6 7 6 3 2 1 2 1 2 2 5 5 5 3 6 6 7 7 11 17 20 23 25 26 27 27 28 29 29 29 28 28 29 29 28 27 26 27 27 28 27 27 28 28 27 27 27 27 27 27 28 28 27 25 24 23 22 22 21 21 20 18 18 18 18 18 18 18 18 18 19 20 21 21 22 23 25 26 24 22 22 22 23 23 24 26 27 28 28 26 27 28
3 2 3 2 4 4 6 5 3 1 3 1 3 2 1 5 6 4 1 4 5 7 9 10 16 20 19 20 20 21 23 24 26 27 27 28 29 29 29 29 29 28 29 29 30 30 30 30 30 30 29 29 28 27 27 27 25 24 23 22 22 21 20 19 19 19 18 18 18 18 18 18 18 18 17 17 17 18 19 21 22 24 25 24 24 24 23 23 23 23 25 27 28 26 25 26 27
4 3 4 5 3 3 3 3 3 2 1 4 5 4 3 5 5 4 1 3 6 8 8 8 14 18 16 16 17 18 20 21 22 22 23 25 26 27 28 29 29 29 29 31 31 32 32 33 33 32 31 29 27 26 25 22 21 21 20 20 19 18 17 17 17 17 16 16 15 15 15 16 16 16 16 16 16 17 19 20 22 23 24 25 25 25 25 25 26 28 29 30 29 28 27 28 29
6 4 5 5 4 4 3 1 3 2 2 4 4 6 5 4 4 5 4 4 5 5 4 3 8 12 13 13 14 14 15 17 18 19 20 23 25 25 25 25 25 26 27 29 30 30 31 31 31 31 30 29 27 24 21 19 18 18 18 17 16 15 15 15 14 13 13 12 12 12 12 13 13 13 14 13 14 15 17 19 21 23 24 24 25 26 27 28 30 31 31 29 26 26 27 29 31
5 3 5 4 3 3 3 2 2 1 4 3 3 1 3 4 5 3 3 3 3 2 2 4 7 9 10 10 10 11 12 14 16 16 18 22 23 23 22 21 21 21 23 24 25 25 26 26 27 28 29 28 25 21 19 17 17 17 16 14 13 12 11 11 10 9 9 9 9 9 9 9 11 11 12 12 13 14 16 17 19 21 22 23 24 25 26 27 29 30 30 28 27 27 29 31 32
1 3 6 4 1 1 1 1 1 3 4 2 2 3 1 6 6 6 7 5 5 4 2 6 10 10 8 7 7 9 10 11 13 14 17 19 20 20 20 20 19 19 20 20 20 21 22 23 24 24 24 22 19 18 16 15 15 14 12 11 10 9 8 7 6 6 5 5 5 5 6 7 9 10 11 12 12 13 14 15 17 18 20 21 22 22 23 24 25 26 27 27 28 28 30 31 31
4 5 6 5 3 2 2 3 2 3 3 3 3 1 2 4 5 10 13 10 7 6 6 9 12 12 8 7 7 8 8 8 10 11 13 15 16 17 18 19 19 18 17 17 18 19 19 19 19 18 17 17 16 16 14 13 13 12 11 10 9 8 6 5 3 2 1 3 4 5 6 7 8 9 11 11 11 11 12 13 14 15 16 17 19 20 21 21 21 22 23 24 25 26 27 27 28
5 5 5 5 4 3 4 4 3 3 1 3 3 1 3 3 3 6 7 4 4 7 9 10 11 10 8 7 7 7 8 9 9 10 11 12 14 16 17 18 17 17 17 18 18 18 18 18 17 17 17 17 17 16 15 14 14 13 12 11 9 8 6 5 3 1 1 2 3 5 6 7 8 9 10 11 11 12 12 12 13 14 14 14 15 16 18 19 19 19 20 20 21 22 23 23 24
3 2 4 4 4 3 3 2 3 4 2 1 1 2 4 5 4 5 4 5 6 8 9 10 9 8 7 7 7 7 8 9 10 12 13 14 15 16 17 17 18 18 19 19 19 19 18 18 19 18 18 17 17 17 16 16 15 14 13 11 9 7 6 4 3 2 2 2 4 5 6 7 8 8 9 9 9 10 10 11 11 12 13 13 14 14 15 16 17 18 18 18 18 18 20 21 22
2 2 3 4 3 6 4 1 0 3 0 3 3 3 5 3 6 6 5 5 4 6 8 10 11 9 8 9 9 9 9 10 12 13 14 16 16 17 18 19 20 20 20 20 20 19 19 18 19 19 19 19 18 18 17 16 15 13 11 10 8 7 5 4 2 2 2 3 5 6 7 8 8 8 8 8 8 8 9 9 9 9 10 12 13 13 13 14 14 15 15 15 16 16 16 17 18
3 3 4 2 1 3 3 1 1 2 2 3 4 5 5 3 4 3 4 5 5 6 7 8 10 11 10 11 11 11 11 12 13 14 16 17 18 19 20 20 20 20 20 20 20 20 19 19 20 20 20 20 19 18 17 15 13 11 10 8 7 6 4 3 3 3 4 5 6 7 8 8 8 8 8 7 7 7 8 8 8 8 8 9 10 11 11 12 12 12 13 13 14 14 15 15 15
3 2 1 2 1 1 1 2 1 2 3 3 4 6 5 4 4 1 3 7 7 7 8 7 9 12 13 13 13 13 13 14 14 15 17 18 18 19 19 20 20 20 20 20 21 21 21 22 21 21 20 19 18 16 14 13 11 10 9 7 6 5 5 4 4 4 5 6 7 7 7 7 7 7 6 6 6 6 6 6 7 7 8 8 9 9 10 11 12 13 13 13 14 15 16 16 16
2 2 2 2 2 3 3 3 2 2 3 3 3 4 4 5 6 6 7 9 9 9 9 8 11 16 17 16 17 16 16 17 16 17 18 19 19 20 20 21 21 22 22 23 23 23 22 22 21 20 18 17 16 14 13 11 10 9 8 7 7 6 5 5 5 5 6 6 6 6 6 5 5 5 5 5 4 5 5 6 6 7 8 8 9 10 11 12 13 14 14 15 16 16 17 18 18
2 1 1 1 1 2 1 2 2 2 3 3 3 3 5 5 5 8 9 9 9 11 9 8 13 19 20 18 19 19 19 19 19 20 21 21 22 22 22 23 23 23 24 23 23 22 21 21 20 18 17 16 15 13 12 11 10 9 8 7 6 6 5 6 6 6 6 6 5 5 4 3 3 3 3 3 3 4 5 6 7 8 9 10 10 12 13 13 14 15 16 17 18 18 19 19 20
4 4 5 6 4 3 1 3 3 3 3 3 3 3 5 5 2 2 4 3 4 8 9 11 16 21 21 20 21 21 21 21 22 23 24 24 24 24 24 24 24 23 23 23 22 21 21 20 19 18 16 15 14 13 12 11 10 9 8 7 7 7 6 7 6 6 5 4 3 3 2 1 1 1 2 3 4 5 6 7 8 9 10 11 12 14 15 16 17 18 19 19 20 21 22 23 23
Wind_Direction
220 235 198 175 193 274 292 261 265 229 223 254 144 105 74 81 104 107 112 148 99 70 65 71 70 49 23 2 75 73 44 36 36 57 125 137 138 138 159 177 174 168 158 140 141 139 135 118 102 84 70 61 58 58 68 76 86 96 97 92 91 92 86 82 78 73 72 66 65 71 74 74 74 78 80 75 69 72 79 82 81 80 77 74 75 76 77 78 76 78 79 79 80 81 82 86 89
225 227 181 222 250 273 281 224 229 256 214 208 84 86 103 115 135 125 126 121 95 96 95 83 76 52 37 113 100 68 47 52 83 102 121 137 140 145 156 163 167 167 153 143 144 142 136 116 104 87 74 66 63 63 69 75 84 93 93 91 92 94 89 82 77 71 66 52 49 62 69 74 78 81 82 80 76 75 80 81 79 80 77 71 71 73 75 78 79 80 80 81 81 82 83 87 90
227 227 166 329 285 247 273 251 227 271 233 138 83 108 137 131 107 100 93 91 100 108 103 94 97 48 331 115 77 68 75 73 94 109 124 141 142 144 148 150 161 162 149 147 144 142 133 116 107 91 80 72 69 70 73 77 81 89 94 94 96 99 97 91 86 79 66 53 49 60 72 79 84 83 83 84 84 80 78 81 82 82 77 71 72 73 73 73 77 79 81 83 83 84 84 87 91
227 228 172 217 279 246 255 245 222 276 312 97 109 156 150 111 89 82 90 98 109 114 112 118 117 58 345 10 46 81 101 92 105 119 130 150 146 141 146 147 156 155 148 150 145 141 129 119 113 97 86 79 75 76 79 81 81 86 93 97 103 105 101 98 95 90 76 61 55 63 78 85 87 86 87 88 87 82 79 81 85 83 76 74 74 74 75 74 76 80 83 84 85 88 87 89 94
226 218 183 195 275 266 262 253 263 309 348 48 119 156 134 103 100 95 97 102 113 116 120 141 119 101 63 29 30 76 102 108 119 126 135 158 152 142 144 144 149 148 143 148 145 138 131 126 117 104 90 83 79 80 85 86 85 87 90 97 106 110 106 103 99 95 85 66 56 64 80 84 85 88 91 91 87 84 82 82 84 80 77 74 70 69 74 76 78 82 84 84 86 88 91 94 98
212 226 227 254 270 280 295 258 237 238 358 18 95 115 105 100 108 104 101 99 105 116 121 136 113 108 102 67 68 89 113 122 123 134 149 156 150 145 143 142 145 141 141 150 147 140 136 133 120 106 94 87 83 85 89 90 90 89 90 93 103 111 110 107 103 102 93 68 61 69 78 81 85 88 88 88 86 85 84 83 84 81 78 76 71 70 71 72 76 81 81 83 85 87 94 97 100
185 273 251 247 260 257 276 253 233 142 4 15 84 83 90 102 114 114 114 108 99 130 133 105 135 127 114 115 93 96 118 125 135 154 166 149 146 148 140 142 145 139 147 155 152 147 142 137 125 110 101 94 88 88 91 93 93 91 90 89 94 108 113 110 109 111 100 80 75 75 77 82 87 89 89 89 86 87 86 83 84 82 80 81 80 78 76 74 75 77 77 79 82 85 91 96 99
195 267 244 224 254 219 255 262 269 99 54 33 60 53 95 116 127 129 142 140 134 149 146 128 168 236 121 121 101 118 129 136 164 170 162 146 148 148 139 147 147 140 158 159 153 154 148 143 131 118 111 102 94 90 89 93 93 92 91 90 91 102 113 115 116 114 97 88 82 76 78 84 87 88 92 96 94 93 91 87 85 83 80 79 79 77 76 75 74 76 77 78 79 84 87 91 95
231 258 255 244 239 205 254 260 159 94 113 100 68 54 104 132 140 138 141 125 135 144 148 164 182 235 113 105 101 144 150 158 180 170 156 152 149 140 140 156 147 149 172 161 157 160 155 150 139 127 119 109 100 93 90 91 92 94 92 93 93 98 105 109 111 105 93 87 83 79 83 88 88 88 90 94 96 95 93 89 85 82 78 75 72 68 67 66 67 72 73 75 79 86 89 90 93
264 243 250 276 243 205 225 254 134 96 100 101 104 113 122 144 149 144 138 115 130 131 133 155 167 254 118 111 113 152 170 173 186 172 161 158 147 135 143 161 153 160 178 165 164 164 161 157 146 136 125 115 107 99 95 93 93 95 95 94 94 96 100 101 101 97 92 88 84 84 89 92 92 89 85 87 89 90 88 87 85 81 78 75 71 66 63 60 60 65 68 75 84 91 94 95 95
275 230 238 288 257 222 205 215 131 111 110 99 102 132 143 148 157 150 133 118 131 119 125 156 159 219 140 111 121 162 187 174 187 177 165 161 144 134 148 169 162 163 181 178 170 166 167 161 152 146 133 124 117 110 103 98 96 96 95 93 92 92 94 97 97 94 92 89 87 88 90 92 93 89 84 83 85 87 87 87 86 81 78 74 71 66 62 60 59 62 67 74 86 94 97 98 97
275 221 215 250 248 229 219 182 123 111 124 124 111 143 153 147 169 154 128 124 136 125 146 180 151 186 174 101 130 168 168 161 184 181 169 164 143 134 156 182 169 163 185 185 172 170 172 167 159 155 145 137 129 122 114 106 101 97 96 93 91 90 90 92 93 93 92 90 89 89 91 92 92 92 88 87 88 89 89 89 87 83 79 75 71 67 63 60 58 60 64 69 80 90 97 100 99
255 246 195 223 263 232 241 79 104 105 135 138 134 153 156 153 175 158 135 139 151 141 155 175 155 190 130 102 135 154 152 164 182 184 172 163 143 137 164 189 175 175 188 182 173 172 175 175 166 163 156 150 142 134 126 117 110 104 100 98 95 93 91 91 92 93 93 92 92 91 94 94 92 93 91 90 89 89 91 90 88 84 79 74 70 66 62 58 56 57 59 64 70 80 89 97 102
251 279 246 220 269 238 117 87 111 124 147 113 129 152 158 160 175 158 145 144 147 141 143 161 180 203 122 117 145 153 159 175 181 182 173 159 146 144 166 187 183 190 192 176 173 173 177 181 172 171 166 161 157 146 138 129 123 118 111 106 103 100 98 95 94 94 95 95 95 96 98 98 95 93 93 93 92 91 91 90 87 82 77 72 68 64 61 58 56 55 55 59 63 70 78 85 97
262 293 299 240 263 245 77 81 125 132 134 113 137 152 152 146 162 153 136 123 109 133 142 168 192 203 143 129 157 168 173 181 179 177 170 162 155 154 165 180 186 197 200 178 169 174 179 181 179 180 175 170 166 159 152 146 141 137 130 122 115 109 107 102 100 99 98 100 100 102 103 104 101 98 98 97 96 93 90 89 85 81 76 72 66 62 60 57 56 55 55 56 59 64 70 78 86
266 291 325 273 261 223 188 150 93 101 125 133 149 152 141 127 155 144 95 108 124 143 143 174 176 116 102 118 147 177 185 180 177 175 173 172 164 164 169 176 185 196 204 181 167 177 182 182 184 185 183 176 170 168 168 168 166 163 156 144 134 125 120 113 110 108 104 106 105 107 108 109 109 106 104 103 101 95 91 87 83 79 75 71 66 60 56 54 52 53 53 53 55 58 63 68 74
269 277 287 266 248 181 179 182 124 120 125 128 155 157 140 132 165 159 117 121 138 149 132 138 170 152 119 128 152 182 190 179 179 176 178 178 170 172 173 173 184 197 202 180 169 181 186 188 187 187 188 181 178 177 178 186 187 185 183 172 160 149 141 133 125 120 115 114 112 112 113 114 115 113 112 110 104 96 93 86 80 74 69 67 64 57 50 48 45 46 47 48 50 52 56 58 64
254 221 226 243 238 191 177 172 137 134 134 145 167 170 153 147 171 167 151 146 141 143 150 158 170 178 146 143 164 188 192 182 182 182 183 184 178 177 174 173 184 201 200 179 173 183 187 195 192 190 190 187 190 190 187 191 196 199 197 194 188 178 171 160 149 140 131 129 124 122 122 119 118 119 118 113 102 94 93 86 79 72 61 55 50 46 38 36 35 36 38 39 42 44 51 55 55
232 220 220 240 250 190 135 98 103 128 142 153 164 183 178 158 169 167 170 174 161 153 170 174 169 180 168 160 179 198 198 188 185 187 188 189 185 183 179 179 186 199 201 182 178 185 187 194 197 194 192 192 197 199 200 198 202 207 205 208 205 201 201 190 179 170 157 153 144 142 141 131 121 119 121 114 114 103 84 66 53 52 39 28 20 19 22 21 18 22 26 27 30 30 37 50 52
232 230 247 245 195 60 80 86 86 117 137 148 154 180 169 144 160 169 186 180 175 187 178 172 178 190 187 181 191 201 201 193 186 187 191 192 189 189 188 184 186 194 203 191 184 190 189 192 196 198 197 197 200 203 207 206 209 215 215 217 215 213 217 215 206 198 191 183 171 179 172 146 140 131 131 120 145 220 310 308 327 332 336 344 343 346 354 356 358 3 9 15 17 13 15 26 31
229 219 240 284 150 80 74 97 101 115 134 145 146 158 148 142 157 172 198 184 177 210 198 187 192 199 196 191 195 201 202 193 186 186 191 194 190 192 193 190 191 191 201 200 192 193 194 194 195 199 202 201 201 206 209 209 213 220 221 221 225 226 227 229 222 214 214 206 195 208 204 170 193 201 201 256 263 261 288 295 300 301 306 315 314 321 323 325 338 344 348 359 359 357 5 8 2
247 240 247 353 8 89 88 110 119 120 132 140 142 154 154 152 163 179 205 208 144 200 195 188 196 202 199 193 193 196 201 196 192 190 192 196 192 191 191 193 199 194 197 206 203 197 196 199 199 200 205 205 203 207 212 212 213 217 219 221 229 236 233 236 236 226 222 218 208 218 222 195 213 227 221 247 267 266 271 277 284 290 292 296 299 298 297 307 320 324 330 336 334 340 352 351 341
242 252 242 14 23 74 90 119 128 127 133 137 151 162 153 155 173 191 216 221 112 115 154 162 177 194 196 191 192 196 200 200 199 198 199 200 196 192 187 195 208 204 203 210 212 206 199 201 203 204 208 209 207 207 211 213 215 214 214 219 223 233 239 243 247 238 230 224 216 223 231 214 223 239 233 239 258 267 274 275 279 288 291 298 305 304 305 306 310 312 314 315 316 322 325 322 320
220 262 241 70 62 73 83 127 130 128 133 136 156 159 153 170 179 186 217 220 155 132 149 152 150 173 186 186 192 202 207 205 205 205 205 204 201 197 189 195 208 205 205 210 213 214 208 203 203 209 213 215 211 209 212 216 219 216 214 220 221 225 233 239 247 249 242 233 223 225 234 230 228 242 245 241 249 261 271 276 280 286 292 297 300 300 304 304 303 304 304 301 302 307 307 305 301
221 267 341 95 82 87 98 125 133 126 132 136 151 149 147 177 172 176 215 215 205 225 203 173 159 168 187 195 197 205 210 210 209 206 205 204 203 200 193 192 203 207 208 212 213 216 217 209 206 212 216 218 216 212 215 220 222 220 218 221 222 224 228 232 239 248 250 244 236 230 237 241 236 242 251 248 246 252 260 266 273 279 284 287 289 292 294 297 297 297 297 296 295 295 296 297 295
221 215 70 87 85 111 106 112 136 124 136 144 152 143 128 170 169 210 224 208 204 213 203 187 174 176 191 205 208 206 210 211 211 210 208 205 204 204 200 193 197 211 217 218 217 216 220 220 214 216 218 220 222 218 217 221 224 224 224 224 224 227 230 231 234 242 249 250 247 240 239 243 242 244 253 255 249 249 253 257 262 267 273 278 283 287 288 291 292 293 294 293 293 290 292 293 292
217 146 104 99 86 110 114 103 138 130 137 158 170 135 118 174 171 236 217 198 201 204 199 195 190 192 197 205 210 209 211 214 214 214 211 208 206 207 207 201 196 204 214 216 218 218 222 228 224 220 220 220 224 226 222 223 228 229 229 229 228 231 233 233 235 240 247 250 251 249 242 240 241 241 248 257 257 252 251 254 255 258 265 272 278 282 284 287 289 292 293 292 292 291 290 289 288
131 133 110 115 109 106 122 111 143 149 144 171 163 96 112 133 181 225 192 188 201 201 201 207 208 211 212 211 210 210 212 215 216 215 215 212 211 211 212 210 202 201 207 210 216 221 223 231 234 226 222 222 225 229 229 228 231 234 235 234 234 236 238 237 239 242 246 250 254 254 249 243 239 238 241 250 259 259 255 253 253 253 258 266 273 277 277 280 285 288 290 290 290 290 288 288 287
152 159 138 140 147 145 165 139 156 173 169 173 110 78 168 175 219 221 192 191 200 198 202 210 215 214 214 216 213 215 213 212 216 218 221 222 220 220 219 220 215 211 212 213 217 222 224 229 238 236 228 226 227 230 234 234 234 236 239 241 240 241 241 241 244 247 249 251 255 258 257 252 245 241 240 242 252 260 261 258 256 255 257 260 265 269 269 273 277 280 282 284 284 284 285 285 286
186 205 219 154 174 217 175 149 154 158 163 178 139 236 214 213 224 218 199 200 196 191 196 203 214 210 208 214 214 218 216 214 219 221 224 227 226 225 223 224 224 222 220 219 221 226 226 226 233 240 236 232 230 231 234 236 237 238 241 244 244 245 245 242 243 248 252 254 257 259 260 258 253 247 242 242 246 255 261 261 260 260 258 258 260 264 267 269 272 274 277 280 279 278 279 281 283
184 209 246 184 176 194 169 154 159 155 165 183 158 244 240 247 218 200 192 198 190 185 190 197 211 206 204 211 214 220 222 221 225 225 225 228 229 227 225 223 223 225 224 223 225 229 230 228 230 235 238 238 235 234 234 235 236 238 242 244 245 247 248 245 243 245 249 255 258 259 259 259 257 252 246 244 243 249 257 260 264 267 265 261 260 263 267 267 268 270 274 277 278 278 276 274 276
197 198 224 211 194 166 164 167 168 161 162 187 172 233 249 283 131 167 181 189 189 191 195 201 208 207 208 212 216 221 225 227 229 228 226 225 228 227 224 223 222 222 223 224 226 229 231 232 232 233 235 237 237 238 237 236 235 237 242 245 247 248 249 248 247 246 247 252 257 260 261 260 259 256 251 247 246 248 254 258 262 269 272 269 265 263 262 264 267 269 272 272 274 279 278 273 272
226 211 192 201 202 171 166 234 201 158 137 191 214 242 238 200 150 170 181 186 195 201 206 211 209 208 212 217 223 225 226 229 229 227 226 224 226 226 224 222 221 221 221 223 223 226 229 231 233 233 233 235 237 238 237 237 236 236 241 247 250 251 251 250 248 248 248 249 255 260 263 263 262 260 256 252 250 252 255 258 260 262 266 271 274 270 265 266 268 267 268 269 270 275 275 273 274
228 211 216 214 194 176 163 277 251 178 155 210 219 240 253 217 169 180 191 192 199 206 212 218 214 208 212 217 224 227 227 229 230 227 225 227 226 225 225 222 221 221 220 221 222 223 226 230 233 233 234 234 236 238 237 239 238 237 239 242 249 254 254 254 252 252 252 251 254 258 262 265 265 265 264 261 257 255 256 258 260 259 258 263 270 273 271 270 269 265 264 266 269 271 272 275 278
185 181 239 227 195 204 185 164 191 176 197 233 192 223 251 243 190 181 194 194 196 208 215 217 216 214 215 217 219 225 228 230 234 232 227 229 229 226 225 224 223 223 221 221 222 223 223 228 233 233 234 234 234 238 239 240 241 240 237 236 242 250 254 257 257 256 257 257 256 257 259 263 267 269 269 269 264 258 256 259 264 266 264 262 262 264 266 267 268 266 262 264 267 270 272 276 279
185 179 206 214 194 215 185 110 186 166 163 224 203 219 241 247 237 200 195 196 197 206 213 216 218 219 218 220 220 224 227 229 235 237 233 231 230 228 226 226 227 226 225 223 224 225 224 227 232 233 234 235 236 237 239 240 241 240 238 239 243 250 256 259 260 259 258 258 259 259 258 261 266 269 269 268 268 265 261 264 269 271 273 272 263 258 261 264 267 265 262 264 266 270 274 275 275
222 177 189 216 192 197 127 89 190 174 154 216 226 238 249 248 248 230 204 197 198 200 204 213 218 221 219 220 223 227 231 232 229 231 235 234 231 228 227 227 228 228 228 227 227 227 226 229 234 235 235 237 238 238 240 241 243 243 243 246 250 252 255 258 260 260 259 258 259 259 260 264 265 267 268 268 271 270 262 260 260 261 270 277 272 269 271 271 269 267 267 268 268 271 273 273 275
307 180 176 217 202 173 57 84 177 178 129 222 219 233 252 247 247 252 221 197 198 200 202 213 219 222 223 223 227 231 234 233 226 224 229 232 232 230 228 229 229 230 231 229 229 228 229 231 235 238 238 238 240 241 243 244 246 248 249 251 253 254 256 259 263 265 264 262 259 258 259 263 262 263 267 267 267 268 265 262 256 258 267 275 274 275 278 278 275 270 270 272 274 277 276 274 275
315 308 164 220 198 122 64 63 141 155 146 251 227 227 252 254 247 249 240 232 221 208 210 221 224 224 224 224 228 230 228 227 226 223 226 230 234 235 234 234 234 235 236 234 233 231 232 234 236 239 240 239 241 242 245 247 249 251 253 255 255 256 258 260 263 265 267 267 266 264 260 258 258 262 268 269 265 263 267 269 266 265 269 271 271 270 273 279 275 269 274 277 278 282 283 281 278
283 297 302 234 181 132 144 187 136 159 198 66 360 308 269 271 267 253 239 240 239 227 224 228 229 230 229 227 227 228 224 223 224 224 228 231 235 239 239 239 239 238 238 236 236 235 236 239 239 240 241 241 241 242 246 248 249 250 251 253 253 254 255 257 259 262 264 265 266 267 264 262 261 260 265 268 266 264 266 268 270 270 267 267 268 266 269 274 271 271 281 284 278 279 283 286 286
248 234 246 276 203 126 98 143 142 37 321 115 33 325 286 240 235 251 238 232 234 232 228 225 226 229 230 227 224 225 224 222 223 226 232 238 240 242 242 241 240 238 238 237 238 238 239 241 242 241 242 243 243 243 245 246 246 246 246 245 246 249 253 257 261 263 265 264 263 264 265 266 265 260 258 262 265 265 263 262 266 270 268 265 264 264 267 271 271 273 279 280 276 277 281 282 283
252 220 211 296 19 105 111 137 143 85 285 222 117 325 285 236 216 236 228 217 224 220 215 214 218 221 221 222 221 221 220 218 222 227 233 241 245 245 242 239 239 239 240 239 239 239 239 240 241 241 241 242 243 243 244 245 245 246 246 246 248 251 256 260 263 264 266 266 266 267 266 266 266 263 260 262 266 267 265 265 269 271 270 268 266 266 267 269 271 273 276 281 280 281 285 281 278
237 241 223 151 89 103 131 151 150 136 225 257 120 172 266 300 266 252 210 192 217 211 209 216 218 220 221 225 226 225 225 225 227 231 234 239 245 247 245 241 240 241 241 239 239 238 237 237 237 238 240 241 243 244 244 244 245 246 247 249 252 256 258 260 261 261 261 261 264 267 268 268 267 265 260 259 261 261 262 266 267 267 268 270 270 270 270 270 271 271 273 277 278 277 279 281 281
218 292 309 153 128 130 151 151 169 187 123 5 352 168 270 299 284 289 166 166 213 214 223 233 227 227 227 230 232 232 234 234 235 237 239 241 244 248 249 247 244 240 240 239 239 238 237 237 236 237 240 242 243 244 245 244 244 246 247 249 252 255 257 257 258 259 256 255 259 264 269 272 272 270 267 263 261 259 260 263 263 265 270 272 270 269 271 272 272 272 273 274 276 277 277 282 285
235 273 9 103 141 148 153 151 181 114 63 316 264 174 274 272 250 277 128 173 231 226 222 229 224 222 220 222 227 230 233 236 238 240 242 243 244 245 246 246 244 240 238 238 239 239 238 237 238 239 240 241 242 243 244 244 244 245 246 248 251 253 254 253 254 254 252 253 257 263 269 272 273 274 274 274 273 271 269 268 267 268 270 269 267 266 268 270 270 271 276 279 282 283 281 283 285
207 182 61 61 57 77 121 160 164 101 64 238 232 185 210 281 255 238 212 212 234 234 232 218 204 201 200 206 214 222 229 235 239 241 242 243 242 242 242 243 242 240 237 237 237 237 237 237 237 238 239 239 239 240 242 242 241 242 242 244 245 245 245 244 245 248 252 259 264 267 271 273 274 276 279 280 280 279 277 274 272 271 270 270 268 265 263 265 267 269 275 280 283 283 281 281 282
146 142 81 64 38 44 46 51 116 106 250 235 225 191 188 274 261 200 188 228 225 226 240 175 160 173 184 200 213 222 232 237 240 240 240 241 241 240 240 239 238 236 234 234 235 236 236 237 236 236 237 237 237 236 237 237 236 237 236 236 236 234 235 237 241 249 258 266 270 273 275 276 279 282 286 287 284 279 275 273 272 272 272 271 270 267 264 263 265 268 271 274 276 277 278 279 281
120 127 113 80 17 38 29 354 80 154 241 256 301 305 166 228 254 220 212 229 185 159 210 174 153 161 182 203 220 231 237 241 242 240 238 238 239 238 237 233 228 226 227 230 232 232 233 232 231 231 231 232 232 231 232 231 229 229 227 225 223 223 227 233 240 248 255 261 265 273 282 288 292 294 295 293 287 282 278 276 277 278 279 278 275 273 270 269 270 272 274 274 273 273 275 279 281
103 141 132 116 75 82 76 243 170 214 238 255 304 359 244 232 251 261 259 247 198 174 169 173 167 164 179 204 225 240 243 242 241 238 237 236 235 234 230 223 216 215 220 223 224 223 222 220 220 221 223 223 221 220 220 215 212 211 208 205 205 209 217 224 231 240 251 269 283 297 306 305 303 300 298 295 291 289 290 290 290 290 291 290 287 283 278 275 273 274 275 275 275 274 275 277 279
187 168 145 145 153 134 198 204 192 227 254 287 278 301 272 267 268 247 246 252 227 183 155 153 160 166 179 203 226 243 237 227 227 230 231 229 225 222 218 210 206 208 210 210 208 207 205 204 203 202 202 199 195 194 192 188 186 185 184 183 183 185 187 190 199 224 297 323 323 325 322 314 310 306 305 308 309 308 308 306 304 303 302 300 297 294 289 285 280 277 275 275 276 276 277 277 279
198 185 146 163 177 163 186 185 185 207 235 324 300 250 197 214 257 234 222 218 159 150 152 151 156 169 184 207 222 229 221 208 207 210 210 210 208 204 201 198 196 197 197 194 192 191 189 185 181 179 179 178 175 174 171 169 169 167 166 165 161 160 161 162 164 179 281 311 314 319 319 315 314 314 315 319 321 321 320 317 315 313 311 307 302 299 297 296 293 291 288 286 285 285 286 288 291
223 176 131 192 205 146 140 176 176 156 106 320 235 247 220 206 256 246 157 123 137 149 160 161 164 175 185 199 203 204 209 201 195 197 197 196 195 192 190 188 187 187 187 185 182 180 177 173 170 168 169 167 164 161 159 158 158 156 154 153 153 155 159 166 177 202 254 289 302 307 309 309 310 311 316 319 318 318 319 319 318 316 314 312 310 307 305 304 302 302 302 301 300 298 297 300 301
203 145 167 213 176 114 120 233 48 107 169 240 185 252 275 274 284 256 164 153 178 170 177 181 179 179 180 186 186 189 197 193 192 196 194 189 186 184 184 182 183 183 180 178 174 171 170 167 165 162 160 158 154 152 153 153 152 151 151 152 156 161 166 178 198 233 273 291 299 304 304 305 308 311 314 317 318 320 324 328 328 325 323 320 320 319 317 316 314 314 315 315 315 313 310 311 310
114 157 201 204 63 77 121 197 8 98 235 242 174 215 251 234 274 291 143 183 218 203 201 195 186 184 183 182 184 191 194 190 192 193 188 186 183 181 181 179 178 176 173 171 168 166 164 161 157 154 152 152 151 151 152 151 150 151 155 159 164 170 182 202 228 256 279 292 296 299 301 302 307 311 315 320 326 332 336 339 342 341 339 335 332 332 331 332 333 333 333 331 329 327 326 327 325
111 183 212 120 140 260 157 183 195 167 217 262 228 223 229 203 217 253 185 212 220 210 206 200 192 191 187 183 184 189 189 188 190 188 184 182 180 178 176 174 172 169 167 166 163 160 157 154 151 150 152 152 152 152 151 152 154 159 165 172 179 189 204 221 246 267 278 285 288 291 296 302 307 313 322 330 334 343 350 354 358 357 357 354 351 351 351 349 349 347 346 343 339 336 334 335 334
45 5 17 70 162 183 172 199 204 166 198 257 261 233 242 233 210 204 211 211 202 199 204 205 200 196 192 188 185 186 188 188 187 183 180 177 174 173 171 169 167 164 163 161 158 155 153 152 152 154 155 154 154 155 157 162 166 171 178 184 191 202 217 235 253 265 271 275 280 287 294 302 313 321 332 340 346 3 15 16 17 12 10 7 2 1 359 355 353 349 346 343 340 337 335 335 333
163 94 135 160 170 124 95 259 217 158 182 234 252 254 260 250 215 211 217 210 197 195 198 204 202 199 197 193 188 188 188 188 185 180 178 176 173 171 168 167 165 162 161 159 158 157 157 158 159 159 160 159 162 165 168 174 177 180 188 192 199 212 224 238 249 254 260 265 270 280 289 300 318 334 344 359 18 29 30 26 24 20 15 10 4 1 357 353 350 346 343 340 337 335 333 330 329
173 185 185 185 180 137 122 255 226 180 187 202 206 252 270 263 259 233 208 179 177 187 191 201 203 199 198 195 193 194 192 189 186 183 181 178 175 172 169 168 167 166 166 164 164 164 165 165 165 165 167 168 171 175 177 182 185 188 194 199 207 218 224 232 238 240 245 248 250 258 266 288 314 354 19 40 43 39 37 31 26 20 13 7 0 355 351 347 343 340 337 334 331 328 326 324 323